Sie sind hier: Start › Wetter Rostock

Wetter Rostock

Auf dieser Seite finden Sie aktuelle Wetterdaten der Hansestadt Rostock:

Letzte Wetterbeobachtung

Messzeitpunkt: 21. Februar 2024 - 15:00 Uhr
Temperatur: 10 °C
Luftdruck: 1011 hPa
Luftfeuchte: 76 %
Wind: 5 m/s, Südwest
Wolken: Stark bewölkt (7/8)
Bedingungen:
Sonne: 07:18 Uhr 17:31 Uhr

Die letzten 24 Messungen

Temperatur: Temperatur   Luftdruck: Luftdruck   Luftfeuchte: Luftfeuchte

Uhrzeit Temperatur Luftdruck Luftfeuchte Wind
20.02. 16:00 h 9 °C 1021 hPa 78 % 6 m/s, W
20.02. 17:00 h 9 °C 1021 hPa 80 % 5 m/s, W
20.02. 18:00 h 8 °C 1021 hPa 80 % 5 m/s, W
20.02. 19:00 h 8 °C 1021 hPa 81 % 3 m/s, SW
20.02. 20:00 h 9 °C 1020 hPa 80 % 4 m/s, SW
20.02. 21:00 h 9 °C 1020 hPa 80 % 3 m/s, SW
20.02. 22:00 h 8 °C 1019 hPa 83 % 4 m/s, SW
20.02. 23:00 h 8 °C 1019 hPa 83 % 5 m/s, SW
21.02. 00:00 h 8 °C 1018 hPa 85 % 5 m/s, S
21.02. 01:00 h 8 °C 1017 hPa 90 % 4 m/s, SW
21.02. 02:00 h 8 °C 1016 hPa 90 % 5 m/s, S
21.02. 03:00 h 8 °C 1015 hPa 90 % 5 m/s, S
21.02. 04:00 h 8 °C 1014 hPa 90 % 7 m/s, SW
21.02. 05:00 h 9 °C 1013 hPa 90 % 7 m/s, SW
21.02. 06:00 h 9 °C 1013 hPa 90 % 5 m/s, SW
21.02. 07:00 h 7 °C 1014 hPa 95 % 8 m/s, W
21.02. 08:00 h 7 °C 1013 hPa 91 % 6 m/s, W
21.02. 09:00 h 8 °C 1013 hPa 88 % 4 m/s, SW
21.02. 10:00 h 9 °C 1013 hPa 82 % 5 m/s, W
21.02. 11:00 h 9 °C 1013 hPa 81 % 7 m/s, W
21.02. 12:00 h 9 °C 1013 hPa 77 % 8 m/s, W
21.02. 13:00 h 8 °C 1013 hPa 81 % 6 m/s, W
21.02. 14:00 h 10 °C 1012 hPa 68 % 7 m/s, W
21.02. 15:00 h 10 °C 1011 hPa 76 % 5 m/s, SW

zu den archivierten Daten »

Bauernregel für heute

Felix und Petrus (22.02.) zeigen an, was wir vierzig Tag für Wetter ha'n.

Typ: Tagesregel

Hinweis: Bitte beachten Sie die Anmerkungen zum Thema Wetter im Impressum!

Update: 21. Februar - 15:27 h


Downloads | Rostock Links | Rostock Quiz | Rostock Webcam | Skyline Rostock
Datenschutz | Impressum | News | Verlinken